Ohio State University Airport Columbus US
ICAO: KOSU
IATA: OSU
Category: Medium
Scheduled Services: No

Elevation: 905 ft
TransAlt. 18000 ft.

Airport Communications:
COLUMBUS APP/DEP:120.2
ATIS:121.35
CTAF:118.8
GND/CLNC DEL:121.7
TWR:118.8
UNICOM:122.95

KOSU Zoom In..

Runways:

(A) RW 05 length 3562 ft width 100 ft
---- / hdg 54

(B) RW 09L length 2994 ft width 100 ft
---- / hdg 92

(C) RW 09R length 5004 ft width 100 ft
ILS 108.50 / hdg 92

(D) RW 14 length 3049 ft width 100 ft
---- / hdg 141

(E) RW 23 length 3562 ft width 100 ft
---- / hdg 234

(F) RW 27L length 5004 ft width 100 ft
---- / hdg 272

(G) RW 27R length 2994 ft width 100 ft
---- / hdg 272

(H) RW 32 length 3049 ft width 100 ft
---- / hdg 321

Location; KOSU
Day. 20 / Time. 09.53 Zulu
* Altimeter: 30.38
* Temperature: -01° c. -30.2°f.
* Wind from: 300° Speed 04 kn.
Dewpoint: -03° c.
Visibility: 10 Statute Miles.
Clouds: Clear (automated report).

KOSU 200953Z AUTO 30004KT 10SM CLR M01/M03 A3038 RMK AO2 SLP295 T10061028 $


Wind From 300°
Speed 04 kn.

  YouTube Music Video
 
jpsmedia.com for Web Design  worldairports.se 2018   terms of use